Location: Gettysburg
(39.8310°N, 77.2310°W)
Time: 09:52:14
(UTC-04:00)

ATLAS 2AS CENTAUR R/B - Visible Passes

Search period start: 04 August 2015 00:00
Search period end: 14 August 2015 00:00
Orbit: 912 x 1300 km, 63.7° (Epoch: 29 June)

Date Brightness Start Highest point End Pass type
(mag) Time Alt. Az. Time Alt. Az. Time Alt. Az.
04 Aug 4.7 02:57:34 13° SE 03:00:43 17° ESE 03:05:33 10° ENE visible
04 Aug 3.0 04:45:01 18° SSW 04:50:45 90° WNW 04:58:42 10° NNE visible
05 Aug 3.2 04:01:59 27° S 04:06:03 61° ESE 04:13:46 10° NE visible
06 Aug 3.8 03:18:54 29° SSE 03:21:30 39° ESE 03:28:36 10° NE visible
06 Aug 3.4 05:06:21 15° WSW 05:12:24 50° NW 05:20:04 10° NNE visible
07 Aug 4.3 02:35:46 23° ESE 02:37:05 24° ESE 02:43:02 10° ENE visible
07 Aug 3.0 04:23:13 29° SW 04:27:24 72° NW 04:35:21 10° NNE visible
08 Aug 4.8 01:52:36 14° ESE 01:52:45 14° ESE 01:56:28 10° ENE visible
08 Aug 2.9 03:40:04 45° SSW 03:42:36 78° ESE 03:50:30 10° NE visible
08 Aug 4.2 05:28:04 10° W 05:34:32 29° NW 05:41:15 10° NNE visible
09 Aug 3.2 02:56:51 47° SE 02:57:58 51° ESE 03:05:29 10° NE visible
09 Aug 3.7 04:44:17 19° WSW 04:49:15 40° NW 04:56:38 10° NNE visible
10 Aug 3.9 02:13:36 32° ESE 02:13:36 32° ESE 02:20:12 10° NE visible
10 Aug 3.2 04:01:02 36° WSW 04:04:08 58° NW 04:11:57 10° NNE visible
11 Aug 4.6 01:30:20 19° E 01:30:20 19° E 01:34:21 10° ENE visible
11 Aug 2.8 03:17:45 62° SW 03:19:13 84° WNW 03:27:11 10° NNE visible
11 Aug 4.5 05:05:28 10° W 05:11:33 25° NNW 05:17:47 10° NNE visible
12 Aug 2.9 02:34:26 66° ESE 02:34:29 66° ESE 02:42:17 10° NE visible
12 Aug 4.0 04:21:53 20° W 04:26:09 33° NW 04:33:10 10° NNE visible
13 Aug 3.7 01:51:05 40° E 01:51:05 40° E 01:57:10 10° NE visible
13 Aug 3.5 03:38:31 36° W 03:40:56 46° NW 03:48:31 10° NNE visible
13 Aug 4.9 05:29:32 10° WNW 05:34:17 16° NNW 05:38:57 10° NNE visible
